Simultaneous Nadir Overpasses (SNOs) Predictions

Prediction of SNOs between AQUA and METOP-C Satellite Orbit:

Table of predicted SNOs for the next 14.0 days since TLE Epoch: 4/19/2019
Index Date (AQUA) Time (AQUA) Lat,Lon (AQUA) SZA (AQUA ) Date (METOP-C) Time (METOP-C) Lat,Lon (METOP-C) SZA (METOP-C ) Distance(km) Time Diff (sec)
1 04/20/2019 02:26:20 73.78, 137.86 62.39 04/20/2019 02:25:45 73.81, 137.87 62.42 2.41 35
2 04/20/2019 03:15:47 -73.87, -54.70 117.53 04/20/2019 03:16:25 -73.87, -54.65 117.54 1.54 38
3 04/22/2019 22:00:32 73.81,-155.74 61.45 04/22/2019 22:00:08 73.80,-155.74 61.45 0.68 24
4 04/22/2019 22:49:59 -73.90, 11.70 118.47 04/22/2019 22:50:48 -73.87, 11.76 118.50 3.18 49
5 04/25/2019 16:45:10 -73.45, 103.82 119.84 04/25/2019 16:44:00 -73.40, 102.40 119.85 45.63 70
6 04/25/2019 17:34:45 73.83, -89.35 60.55 04/25/2019 17:34:31 73.84, -89.24 60.56 3.79 14
7 04/25/2019 18:24:11 -73.87, 78.20 119.43 04/25/2019 18:25:12 -73.88, 78.17 119.43 1.19 61
8 04/28/2019 12:19:28 -73.74, 169.65 120.44 04/28/2019 12:18:17 -73.75, 169.61 120.43 1.20 71
9 04/28/2019 13:08:57 73.81, -22.86 59.62 04/28/2019 13:08:55 73.84, -22.85 59.65 3.01 2
10 04/28/2019 13:58:24 -73.90, 144.58 120.30 04/28/2019 13:59:36 -73.88, 144.58 120.33 2.46 72
11 05/01/2019 07:53:40 -73.78,-123.98 121.28 05/01/2019 07:52:40 -73.75,-123.98 121.30 3.11 60
12 05/01/2019 08:43:09 73.84, 43.51 58.79 05/01/2019 08:43:18 73.83, 43.54 58.77 1.73 9




NCC Satellite Simultaneous Nadir Overpasses (SNOs) Prediction Service
